User: anonymous   Login
Location: Edmonton
(53.5500°N, 113.5000°W)
Time: 07:06:17
(UTC-06:00)
Language:

CZ-4C R/B - Orbit

View from above orbital plane
View from above orbital plane
View from above satellite
View from above satellite

Ground track
Ground track

The orbit data is extracted from the following two-line orbital elements,

1 36416U 10009D   16212.11923890 -.00000082  00000-0  10682-4 0  9997
2 36416  63.4425  47.5015 0355255 357.2319   2.6746 13.69499249320267
Epoch (UTC): 30 July 2016 02:51:42
Eccentricity: 0.0355255
inclination: 63.4425°
perigee height: 739 km
apogee height: 1263 km
right ascension of ascending node: 47.5015°
argument of perigee: 357.2319°
revolutions per day: 13.69499249
mean anomaly at epoch: 2.6746°
orbit number at epoch: 32026

The dashed part of the orbit path shows where the satellite is in the earth's shadow,  

DLR